Simultaneous Nadir Overpasses (SNOs) Predictions

Prediction of SNOs between GOES-16 and LANDSAT-8 Satellite Orbit:

Table of predicted SNOs for the next 14.0 days since TLE Epoch: 8/8/2025
Index Date Time (GOES-16) GOES-16 Lat,Lon LANDSAT-8 Lat,Lon Distance(km) Time Diff (sec)
1 08/09/2025 17:03:57 0.01,-104.75 -0.33,-103.29 166.76 80
2 08/10/2025 05:28:00 -0.02,-104.72 -0.80,-108.48 427.04 80
3 08/12/2025 05:15:50 -0.01,-104.72 -0.15,-105.53 90.70 80
4 08/14/2025 05:00:59 -0.01,-104.73 0.45,-102.56 245.77 80
5 08/14/2025 17:24:55 0.02,-104.76 0.62,-107.72 336.75 80
6 08/16/2025 17:10:04 0.02,-104.76 0.01,-104.76 1.50 80
7 08/18/2025 16:57:53 0.02,-104.75 -0.62,-101.81 335.33 80
8 08/19/2025 05:21:57 -0.03,-104.72 -0.49,-106.99 258.21 80
9 08/21/2025 05:07:05 -0.03,-104.72 0.09,-104.03 78.04 80
